| time (UTC) | temp F | wind direction | speed MPH | gust MPH | rain 1hr in | rain 24hr in | rain mn in | humidity % | barometer mb |
| 20260502170447 | 65 | 112 | 2.0 | 9.0 | 0.00 | 0.38 | 0.00 | 81 | 1018.6 |
| 20260502163947 | 66 | 135 | 11.0 | 11.0 | 0.00 | 0.38 | 0.00 | 80 | 1018.8 |
| 20260502163447 | 66 | 67 | 2.0 | 11.0 | 0.00 | 0.38 | 0.00 | 80 | 1018.9 |
| 20260502162947 | 66 | 112 | 11.0 | 11.0 | 0.00 | 0.38 | 0.00 | 80 | 1018.7 |
| 20260502162447 | 66 | 112 | 4.0 | 8.0 | 0.00 | 0.38 | 0.00 | 79 | 1018.6 |
| 20260502161947 | 66 | 135 | 8.0 | 8.0 | 0.00 | 0.38 | 0.00 | 79 | 1018.7 |
| 20260502161447 | 66 | 67 | 5.0 | 6.0 | 0.00 | 0.38 | 0.00 | 79 | 1018.8 |
| 20260502160947 | 66 | 67 | 4.0 | 8.0 | 0.00 | 0.38 | 0.00 | 78 | 1018.7 |
| 20260502160447 | 67 | 45 | 2.0 | 7.0 | 0.00 | 0.38 | 0.00 | 77 | 1019.0 |
| 20260502151947 | 69 | 90 | 10.0 | 10.0 | 0.00 | 0.38 | 0.00 | 75 | 1019.2 |
| 20260502151447 | 68 | 157 | 4.0 | 4.0 | 0.00 | 0.38 | 0.00 | 76 | 1019.0 |
| 20260502150948 | 68 | 157 | 4.0 | 9.0 | 0.00 | 0.38 | 0.00 | 76 | 1019.2 |
| 20260502150447 | 68 | 112 | 9.0 | 9.0 | 0.00 | 0.38 | 0.00 | 76 | 1019.2 |
| 20260502130447 | 69 | 112 | 9.0 | 9.0 | 0.00 | 0.38 | 0.00 | 75 | 1020.8 |
| 20260502123448 | 69 | 112 | 8.0 | 8.0 | 0.00 | 0.38 | 0.00 | 76 | 1021.1 |
| 20260502122948 | 69 | 135 | 6.0 | 6.0 | 0.00 | 0.38 | 0.00 | 76 | 1021.0 |
| 20260502122448 | 69 | 90 | 6.0 | 6.0 | 0.00 | 0.38 | 0.00 | 76 | 1021.0 |
| 20260502121948 | 69 | 90 | 5.0 | 13.0 | 0.00 | 0.38 | 0.00 | 75 | 1021.1 |
| 20260502121448 | 69 | 90 | 4.0 | 8.0 | 0.00 | 0.38 | 0.00 | 74 | 1021.3 |
| 20260502120948 | 69 | 112 | 8.0 | 8.0 | 0.00 | 0.38 | 0.00 | 75 | 1021.2 |
| 20260502120448 | 69 | 112 | 8.0 | 8.0 | 0.00 | 0.38 | 0.00 | 75 | 1021.2 |
| 20260502115448 | 69 | 90 | 6.0 | 10.0 | 0.00 | 0.38 | 0.00 | 74 | 1021.3 |
| 20260502114948 | 69 | 112 | 3.0 | 4.0 | 0.00 | 0.38 | 0.00 | 74 | 1021.1 |
| 20260502114448 | 70 | 112 | 4.0 | 7.0 | 0.00 | 0.38 | 0.00 | 74 | 1021.2 |
| 20260502113948 | 70 | 112 | 5.0 | 10.0 | 0.00 | 0.38 | 0.00 | 74 | 1021.1 |
| 20260502113448 | 70 | 112 | 10.0 | 12.0 | 0.00 | 0.38 | 0.00 | 73 | 1021.1 |
| 20260502112948 | 70 | 135 | 12.0 | 12.0 | 0.00 | 0.38 | 0.00 | 73 | 1021.3 |
| 20260502112448 | 70 | 90 | 6.0 | 11.0 | 0.00 | 0.38 | 0.00 | 74 | 1021.5 |
| 20260502111948 | 70 | 112 | 11.0 | 11.0 | 0.00 | 0.38 | 0.00 | 74 | 1021.5 |
| 20260502111448 | 70 | 135 | 7.0 | 7.0 | 0.00 | 0.38 | 0.00 | 74 | 1021.6 |
| 20260502110948 | 70 | 112 | 7.0 | 7.0 | 0.00 | 0.38 | 0.00 | 74 | 1021.6 |
| 20260502110448 | 69 | 135 | 3.0 | 6.0 | 0.00 | 0.38 | 0.00 | 75 | 1021.5 |
| 20260502105948 | 69 | 112 | 6.0 | 6.0 | 0.00 | 0.38 | 0.00 | 74 | 1021.7 |
| 20260502105448 | 69 | 22 | 3.0 | 8.0 | 0.00 | 0.38 | 0.00 | 74 | 1021.8 |
| 20260502104948 | 69 | 112 | 8.0 | 8.0 | 0.00 | 0.38 | 0.00 | 74 | 1021.8 |
| 20260502104448 | 69 | 22 | 4.0 | 8.0 | 0.00 | 0.38 | 0.00 | 75 | 1021.9 |
| 20260502103948 | 69 | 157 | 6.0 | 6.0 | 0.00 | 0.38 | 0.00 | 76 | 1021.9 |
| 20260502103448 | 69 | 67 | 6.0 | 6.0 | 0.00 | 0.38 | 0.00 | 76 | 1021.7 |
| 20260502102948 | 69 | 112 | 6.0 | 6.0 | 0.00 | 0.38 | 0.00 | 76 | 1021.9 |
| 20260502102448 | 68 | 90 | 4.0 | 10.0 | 0.00 | 0.38 | 0.00 | 77 | 1021.7 |
| 20260502101948 | 68 | 112 | 10.0 | 10.0 | 0.00 | 0.38 | 0.00 | 76 | 1021.8 |
| 20260502101448 | 68 | 45 | 0.0 | 0.0 | 0.00 | 0.38 | 0.00 | 78 | 1021.8 |
| 20260502100948 | 68 | 45 | 0.0 | 0.0 | 0.00 | 0.38 | 0.00 | 78 | 1021.7 |
| 20260502100448 | 68 | 45 | 0.0 | 3.0 | 0.00 | 0.38 | 0.00 | 79 | 1021.6 |
| 20260502091448 | 67 | 135 | 9.0 | 9.0 | 0.00 | 0.38 | 0.00 | 80 | 1021.6 |
| 20260502090948 | 67 | 90 | 7.0 | 7.0 | 0.00 | 0.38 | 0.00 | 81 | 1021.8 |
| 20260502090448 | 66 | 112 | 4.0 | 4.0 | 0.00 | 0.38 | 0.00 | 82 | 1021.9 |
| 20260502071448 | 62 | 22 | 0.0 | 0.0 | 0.02 | 0.38 | 0.00 | 93 | 1022.1 |
| 20260502070948 | 61 | 22 | 0.0 | 1.0 | 0.02 | 0.38 | 0.00 | 93 | 1022.0 |
| 20260502070449 | 61 | 22 | 1.0 | 2.0 | 0.02 | 0.38 | 0.00 | 93 | 1022.1 |
| 20260502065949 | 61 | 22 | 0.0 | 4.0 | 0.02 | 0.38 | 0.00 | 93 | 1022.0 |
| 20260502065449 | 60 | 0 | 4.0 | 4.0 | 0.04 | 0.38 | 0.00 | 93 | 1022.1 |
| 20260502064949 | 60 | 45 | 0.0 | 3.0 | 0.04 | 0.38 | 0.00 | 93 | 1022.1 |
| 20260502064449 | 60 | 337 | 3.0 | 3.0 | 0.04 | 0.38 | 0.00 | 93 | 1022.0 |
| 20260502063949 | 60 | 45 | 1.0 | 1.0 | 0.04 | 0.38 | 0.00 | 93 | 1022.1 |
| 20260502063449 | 60 | 22 | 1.0 | 1.0 | 0.04 | 0.38 | 0.00 | 93 | 1021.9 |
| 20260502062949 | 60 | 45 | 0.0 | 3.0 | 0.04 | 0.38 | 0.00 | 93 | 1021.9 |
| 20260502062449 | 60 | 22 | 0.0 | 2.0 | 0.04 | 0.38 | 0.00 | 93 | 1022.0 |
| 20260502061949 | 60 | 45 | 0.0 | 0.0 | 0.04 | 0.36 | 0.00 | 93 | 1021.9 |
| 20260502061449 | 60 | 45 | 0.0 | 0.0 | 0.04 | 0.36 | 0.00 | 93 | 1021.9 |
| 20260502060949 | 60 | 45 | 0.0 | 3.0 | 0.10 | 0.36 | 0.00 | 93 | 1021.9 |
| 20260502060449 | 60 | 0 | 1.0 | 1.0 | 0.10 | 0.36 | 0.00 | 93 | 1021.8 |
| 20260502055949 | 60 | 22 | 1.0 | 2.0 | 0.10 | 0.36 | 0.00 | 93 | 1021.8 |
| 20260502055449 | 60 | 22 | 2.0 | 2.0 | 0.08 | 0.34 | 0.00 | 93 | 1021.7 |
| 20260502054949 | 60 | 45 | 0.0 | 0.0 | 0.08 | 0.34 | 0.00 | 93 | 1021.7 |
| 20260502054449 | 60 | 45 | 0.0 | 0.0 | 0.10 | 0.34 | 0.00 | 93 | 1021.7 |
| 20260502053949 | 60 | 45 | 0.0 | 0.0 | 0.10 | 0.34 | 0.00 | 93 | 1021.6 |
| 20260502053449 | 60 | 45 | 0.0 | 4.0 | 0.10 | 0.34 | 0.00 | 93 | 1021.6 |
| 20260502052949 | 60 | 0 | 4.0 | 4.0 | 0.10 | 0.34 | 0.00 | 93 | 1021.6 |
| 20260502052449 | 60 | 67 | 0.0 | 3.0 | 0.12 | 0.34 | 0.00 | 93 | 1021.5 |
| 20260502051949 | 60 | 135 | 3.0 | 3.0 | 0.18 | 0.32 | 0.00 | 93 | 1021.5 |
| 20260502051449 | 59 | 67 | 0.0 | 0.0 | 0.18 | 0.32 | 0.00 | 93 | 1021.5 |
| 20260502050949 | 59 | 67 | 0.0 | 2.0 | 0.12 | 0.26 | 0.00 | 92 | 1021.4 |
| 20260502050449 | 59 | 90 | 2.0 | 2.0 | 0.12 | 0.26 | 0.00 | 92 | 1021.4 |
| 20260502045949 | 59 | 67 | 0.0 | 0.0 | 0.16 | 0.26 | 0.00 | 92 | 1021.5 |
| 20260502045449 | 59 | 90 | 0.0 | 0.0 | 0.20 | 0.26 | 0.00 | 92 | 1021.5 |
| 20260502044949 | 60 | 112 | 0.0 | 5.0 | 0.20 | 0.26 | 0.00 | 92 | 1021.4 |
| 20260502044449 | 59 | 67 | 5.0 | 5.0 | 0.18 | 0.24 | 0.00 | 92 | 1021.3 |
| 20260502043949 | 59 | 45 | 0.0 | 0.0 | 0.18 | 0.24 | 0.00 | 92 | 1021.3 |
| 20260502043449 | 60 | 67 | 0.0 | 0.0 | 0.18 | 0.24 | 0.00 | 92 | 1021.2 |
| 20260502042949 | 60 | 22 | 0.0 | 0.0 | 0.16 | 0.22 | 0.00 | 92 | 1021.2 |
| 20260502042449 | 60 | 90 | 0.0 | 7.0 | 0.18 | 0.22 | 0.00 | 92 | 1021.1 |
| 20260502041949 | 60 | 67 | 0.0 | 2.0 | 0.12 | 0.14 | 0.00 | 92 | 1021.2 |
| 20260502041449 | 60 | 22 | 2.0 | 2.0 | 0.12 | 0.14 | 0.00 | 92 | 1021.3 |
| 20260502040949 | 61 | 67 | 0.0 | 3.0 | 0.12 | 0.14 | 0.00 | 92 | 1021.2 |
| 20260502040449 | 61 | 112 | 0.0 | 0.0 | 0.12 | 0.14 | 0.00 | 92 | 1021.3 |
| 20260502035949 | 61 | 90 | 0.0 | 0.0 | 0.08 | 0.10 | 0.00 | 92 | 1021.2 |
| 20260502035449 | 61 | 22 | 0.0 | 5.0 | 0.06 | 0.06 | 0.00 | 92 | 1021.4 |
| 20260502034949 | 62 | 112 | 5.0 | 5.0 | 0.06 | 0.06 | 0.00 | 91 | 1021.3 |
| 20260502034449 | 62 | 90 | 0.0 | 3.0 | 0.06 | 0.06 | 0.00 | 91 | 1021.3 |
| 20260502033949 | 62 | 45 | 3.0 | 3.0 | 0.06 | 0.06 | 0.00 | 91 | 1021.3 |
| 20260502033449 | 62 | 45 | 2.0 | 2.0 | 0.06 | 0.06 | 0.00 | 91 | 1021.1 |
| 20260502032949 | 62 | 45 | 0.0 | 0.0 | 0.04 | 0.04 | 0.00 | 91 | 1021.3 |
| 20260502032449 | 62 | 45 | 0.0 | 0.0 | 0.04 | 0.04 | 0.00 | 91 | 1021.1 |
| 20260502031949 | 62 | 112 | 0.0 | 6.0 | 0.02 | 0.02 | 0.00 | 91 | 1021.1 |
| 20260502031449 | 62 | 135 | 6.0 | 6.0 | 0.02 | 0.02 | 0.00 | 90 | 1021.2 |
| 20260502030949 | 62 | 112 | 0.0 | 4.0 | 0.02 | 0.02 | 0.00 | 90 | 1021.1 |
| 20260502030449 | 62 | 112 | 3.0 | 5.0 | 0.02 | 0.02 | 0.00 | 90 | 1021.3 |
| 20260502025949 | 62 | 135 | 5.0 | 5.0 | 0.02 | 0.02 | 0.00 | 89 | 1021.4 |
| 20260502025449 | 62 | 135 | 1.0 | 5.0 | 0.00 | 0.00 | 0.00 | 89 | 1021.4 |
| 20260502024949 | 63 | 90 | 4.0 | 4.0 | 0.00 | 0.00 | 0.00 | 88 | 1021.4 |
| 20260502024449 | 63 | 112 | 3.0 | 3.0 | 0.00 | 0.00 | 0.00 | 88 | 1021.3 |
| 20260502023949 | 63 | 112 | 3.0 | 6.0 | 0.00 | 0.00 | 0.00 | 88 | 1021.4 |
| 20260502023449 | 64 | 112 | 3.0 | 3.0 | 0.00 | 0.00 | 0.00 | 88 | 1021.3 |
| 20260502022949 | 64 | 112 | 3.0 | 3.0 | 0.00 | 0.00 | 0.00 | 88 | 1021.3 |
| 20260502022449 | 64 | 180 | 3.0 | 7.0 | 0.00 | 0.00 | 0.00 | 88 | 1021.3 |
| 20260502021949 | 64 | 135 | 7.0 | 7.0 | 0.00 | 0.00 | 0.00 | 88 | 1021.3 |
| 20260502021449 | 64 | 112 | 2.0 | 4.0 | 0.00 | 0.00 | 0.00 | 87 | 1021.4 |
| 20260502020949 | 64 | 112 | 4.0 | 8.0 | 0.00 | 0.00 | 0.00 | 87 | 1021.3 |
| 20260502020449 | 64 | 112 | 4.0 | 4.0 | 0.00 | 0.00 | 0.00 | 87 | 1021.3 |
| 20260502015949 | 64 | 67 | 3.0 | 7.0 | 0.00 | 0.00 | 0.00 | 87 | 1021.5 |
| 20260502015449 | 64 | 45 | 6.0 | 6.0 | 0.00 | 0.00 | 0.00 | 87 | 1021.3 |
| 20260502014949 | 64 | 0 | 6.0 | 6.0 | 0.00 | 0.00 | 0.00 | 87 | 1021.5 |
| 20260502014449 | 64 | 135 | 4.0 | 4.0 | 0.00 | 0.00 | 0.00 | 87 | 1021.6 |
| 20260502013949 | 64 | 90 | 4.0 | 4.0 | 0.00 | 0.00 | 0.00 | 87 | 1021.5 |
| 20260502013449 | 64 | 112 | 2.0 | 10.0 | 0.00 | 0.00 | 0.00 | 87 | 1021.6 |
| 20260502012949 | 64 | 157 | 10.0 | 10.0 | 0.00 | 0.00 | 0.00 | 87 | 1021.5 |
| 20260502012450 | 64 | 112 | 1.0 | 1.0 | 0.00 | 0.00 | 0.00 | 87 | 1021.5 |
| 20260502011949 | 64 | 90 | 1.0 | 3.0 | 0.00 | 0.00 | 0.00 | 87 | 1021.5 |
| 20260502011450 | 64 | 22 | 1.0 | 4.0 | 0.00 | 0.00 | 0.00 | 87 | 1021.8 |
| 20260502010950 | 64 | 90 | 1.0 | 3.0 | 0.00 | 0.00 | 0.00 | 87 | 1021.9 |
| 20260502010450 | 64 | 45 | 2.0 | 4.0 | 0.00 | 0.00 | 0.00 | 87 | 1022.0 |
| 20260502005950 | 64 | 45 | 4.0 | 4.0 | 0.00 | 0.00 | 0.00 | 87 | 1021.8 |
| 20260502005450 | 64 | 112 | 3.0 | 6.0 | 0.00 | 0.00 | 0.00 | 87 | 1022.0 |
| 20260502004950 | 64 | 67 | 6.0 | 6.0 | 0.00 | 0.00 | 0.00 | 87 | 1022.1 |
| 20260502004450 | 64 | 112 | 3.0 | 11.0 | 0.00 | 0.00 | 0.00 | 86 | 1022.0 |
| 20260502003950 | 64 | 112 | 11.0 | 11.0 | 0.00 | 0.00 | 0.00 | 86 | 1022.2 |
| 20260502003450 | 64 | 112 | 5.0 | 5.0 | 0.00 | 0.00 | 0.00 | 86 | 1022.2 |
| 20260502002950 | 64 | 112 | 5.0 | 5.0 | 0.00 | 0.00 | 0.00 | 86 | 1022.2 |
| 20260502002450 | 64 | 45 | 0.0 | 4.0 | 0.00 | 0.00 | 0.00 | 86 | 1022.2 |
| 20260502001950 | 64 | 135 | 2.0 | 2.0 | 0.00 | 0.00 | 0.00 | 86 | 1022.3 |
| 20260502001450 | 64 | 67 | 0.0 | 4.0 | 0.00 | 0.00 | 0.00 | 86 | 1022.2 |
| 20260502000950 | 64 | 112 | 4.0 | 4.0 | 0.00 | 0.00 | 0.00 | 86 | 1022.4 |
| 20260502000450 | 64 | 135 | 2.0 | 2.0 | 0.00 | 0.00 | 0.00 | 86 | 1022.3 |
| 20260501235950 | 64 | 22 | 1.0 | 2.0 | 0.00 | 0.00 | 0.00 | 86 | 1022.4 |
| 20260501235450 | 64 | 157 | 2.0 | 6.0 | 0.00 | 0.00 | 0.00 | 86 | 1022.5 |
| 20260501233450 | 64 | 135 | 10.0 | 10.0 | 0.00 | 0.00 | 0.00 | 85 | 1022.7 |
| 20260501232950 | 64 | 67 | 5.0 | 5.0 | 0.00 | 0.00 | 0.00 | 85 | 1022.7 |
| 20260501232450 | 64 | 67 | 0.0 | 4.0 | 0.00 | 0.00 | 0.00 | 85 | 1022.8 |
| 20260501231950 | 64 | 135 | 4.0 | 4.0 | 0.00 | 0.00 | 0.00 | 85 | 1023.0 |
| 20260501231450 | 63 | 67 | 1.0 | 1.0 | 0.00 | 0.00 | 0.00 | 85 | 1023.0 |
| 20260501230950 | 63 | 67 | 1.0 | 4.0 | 0.00 | 0.00 | 0.00 | 85 | 1022.9 |
| 20260501230450 | 63 | 112 | 4.0 | 4.0 | 0.00 | 0.00 | 0.00 | 84 | 1023.0 |
| 20260501225950 | 63 | 112 | 2.0 | 2.0 | 0.00 | 0.00 | 0.00 | 84 | 1023.0 |
| 20260501225450 | 63 | 22 | 0.0 | 4.0 | 0.00 | 0.00 | 0.00 | 84 | 1023.0 |
| 20260501224950 | 63 | 45 | 0.0 | 4.0 | 0.00 | 0.00 | 0.00 | 84 | 1022.9 |
| 20260501224450 | 63 | 22 | 2.0 | 2.0 | 0.00 | 0.00 | 0.00 | 84 | 1022.9 |
| 20260501223950 | 64 | 22 | 2.0 | 2.0 | 0.00 | 0.00 | 0.00 | 83 | 1022.8 |
| 20260501223450 | 64 | 112 | 0.0 | 0.0 | 0.00 | 0.00 | 0.00 | 83 | 1022.8 |
| 20260501222950 | 64 | 45 | 0.0 | 0.0 | 0.00 | 0.00 | 0.00 | 83 | 1022.8 |
| 20260501222450 | 64 | 90 | 0.0 | 5.0 | 0.00 | 0.00 | 0.00 | 83 | 1022.7 |
| 20260501221950 | 64 | 67 | 2.0 | 3.0 | 0.00 | 0.00 | 0.00 | 83 | 1022.8 |
| 20260501221450 | 64 | 135 | 3.0 | 3.0 | 0.00 | 0.00 | 0.00 | 83 | 1022.7 |
| 20260501220950 | 64 | 112 | 0.0 | 3.0 | 0.00 | 0.00 | 0.00 | 83 | 1022.9 |
| 20260501220450 | 64 | 22 | 0.0 | 0.0 | 0.00 | 0.00 | 0.00 | 82 | 1023.0 |
| 20260501215950 | 64 | 22 | 0.0 | 3.0 | 0.00 | 0.00 | 0.00 | 82 | 1023.0 |
| 20260501215450 | 64 | 90 | 3.0 | 3.0 | 0.00 | 0.00 | 0.00 | 82 | 1023.0 |
| 20260501214950 | 64 | 112 | 0.0 | 0.0 | 0.00 | 0.00 | 0.00 | 82 | 1023.0 |
| 20260501214450 | 64 | 112 | 0.0 | 5.0 | 0.00 | 0.00 | 0.00 | 82 | 1023.0 |
| 20260501213950 | 64 | 112 | 5.0 | 5.0 | 0.00 | 0.00 | 0.00 | 82 | 1023.0 |
| 20260501213450 | 64 | 67 | 0.0 | 0.0 | 0.00 | 0.00 | 0.00 | 82 | 1023.0 |
| 20260501212950 | 64 | 45 | 0.0 | 3.0 | 0.00 | 0.00 | 0.00 | 82 | 1023.0 |
| 20260501212450 | 64 | 45 | 3.0 | 3.0 | 0.00 | 0.00 | 0.00 | 82 | 1022.9 |
| 20260501211950 | 64 | 0 | 1.0 | 1.0 | 0.00 | 0.00 | 0.00 | 82 | 1023.0 |
| 20260501211450 | 64 | 45 | 0.0 | 1.0 | 0.00 | 0.00 | 0.00 | 82 | 1022.9 |
| 20260501210950 | 64 | 67 | 1.0 | 5.0 | 0.00 | 0.00 | 0.00 | 82 | 1023.1 |
| 20260501210450 | 64 | 90 | 3.0 | 3.0 | 0.00 | 0.00 | 0.00 | 82 | 1022.9 |
| 20260501205950 | 64 | 90 | 3.0 | 3.0 | 0.00 | 0.00 | 0.00 | 82 | 1023.1 |
| 20260501205450 | 64 | 45 | 0.0 | 6.0 | 0.00 | 0.00 | 0.00 | 82 | 1023.0 |
| 20260501204950 | 64 | 45 | 6.0 | 6.0 | 0.00 | 0.00 | 0.00 | 83 | 1023.2 |
| 20260501204450 | 64 | 45 | 3.0 | 4.0 | 0.00 | 0.00 | 0.00 | 82 | 1023.0 |
| 20260501203950 | 64 | 157 | 3.0 | 6.0 | 0.00 | 0.00 | 0.00 | 82 | 1023.0 |
| 20260501203450 | 64 | 90 | 6.0 | 6.0 | 0.00 | 0.00 | 0.00 | 82 | 1023.0 |
| 20260501202950 | 64 | 90 | 2.0 | 2.0 | 0.00 | 0.00 | 0.00 | 82 | 1022.8 |
| 20260501202450 | 64 | 90 | 2.0 | 2.0 | 0.00 | 0.00 | 0.00 | 82 | 1022.9 |
| 20260501201951 | 64 | 90 | 2.0 | 3.0 | 0.00 | 0.00 | 0.00 | 81 | 1022.9 |
| 20260501201450 | 64 | 135 | 3.0 | 6.0 | 0.00 | 0.00 | 0.00 | 81 | 1023.0 |
| 20260501200950 | 64 | 90 | 6.0 | 6.0 | 0.00 | 0.00 | 0.00 | 81 | 1022.9 |
| 20260501200450 | 64 | 135 | 0.0 | 3.0 | 0.00 | 0.00 | 0.00 | 81 | 1022.9 |
| 20260501195951 | 64 | 112 | 0.0 | 0.0 | 0.00 | 0.00 | 0.00 | 81 | 1022.8 |
| 20260501195451 | 64 | 67 | 0.0 | 3.0 | 0.00 | 0.00 | 0.00 | 81 | 1022.7 |
| 20260501194950 | 64 | 90 | 0.0 | 9.0 | 0.00 | 0.00 | 0.00 | 81 | 1022.7 |
| 20260501194450 | 64 | 90 | 9.0 | 9.0 | 0.00 | 0.00 | 0.00 | 81 | 1022.6 |
| 20260501193951 | 64 | 90 | 6.0 | 6.0 | 0.00 | 0.00 | 0.00 | 81 | 1022.5 |
| 20260501193451 | 64 | 67 | 3.0 | 3.0 | 0.00 | 0.00 | 0.00 | 81 | 1022.5 |
| 20260501192951 | 64 | 22 | 3.0 | 3.0 | 0.00 | 0.00 | 0.00 | 81 | 1022.5 |
| 20260501192451 | 64 | 22 | 3.0 | 3.0 | 0.00 | 0.00 | 0.00 | 81 | 1022.5 |
| 20260501191951 | 64 | 45 | 0.0 | 2.0 | 0.00 | 0.00 | 0.00 | 81 | 1022.3 |
| 20260501191451 | 64 | 135 | 0.0 | 2.0 | 0.00 | 0.00 | 0.00 | 81 | 1022.5 |
| 20260501190951 | 64 | 135 | 2.0 | 6.0 | 0.00 | 0.00 | 0.00 | 80 | 1022.3 |
| 20260501190451 | 64 | 67 | 4.0 | 4.0 | 0.00 | 0.00 | 0.00 | 80 | 1022.2 |
| 20260501185951 | 64 | 90 | 3.0 | 5.0 | 0.00 | 0.00 | 0.00 | 79 | 1022.3 |
| 20260501185451 | 64 | 135 | 5.0 | 5.0 | 0.00 | 0.00 | 0.00 | 79 | 1022.4 |
| 20260501184951 | 64 | 112 | 5.0 | 8.0 | 0.00 | 0.00 | 0.00 | 79 | 1022.2 |
| 20260501184451 | 64 | 112 | 8.0 | 8.0 | 0.00 | 0.00 | 0.00 | 78 | 1022.3 |
| 20260501183951 | 65 | 135 | 3.0 | 3.0 | 0.00 | 0.00 | 0.00 | 78 | 1022.0 |
| 20260501183451 | 65 | 135 | 3.0 | 3.0 | 0.00 | 0.00 | 0.00 | 78 | 1022.1 |
| 20260501182951 | 65 | 45 | 0.0 | 6.0 | 0.00 | 0.00 | 0.00 | 78 | 1022.1 |
| 20260501182451 | 65 | 135 | 6.0 | 11.0 | 0.00 | 0.00 | 0.00 | 77 | 1022.1 |
| 20260501181951 | 65 | 90 | 11.0 | 11.0 | 0.00 | 0.00 | 0.00 | 77 | 1022.1 |
| 20260501181451 | 65 | 90 | 11.0 | 11.0 | 0.00 | 0.00 | 0.00 | 77 | 1022.0 |
| 20260501180951 | 65 | 112 | 6.0 | 6.0 | 0.00 | 0.00 | 0.00 | 77 | 1022.0 |
| 20260501180451 | 66 | 90 | 6.0 | 6.0 | 0.00 | 0.00 | 0.00 | 76 | 1021.9 |
| 20260501175951 | 66 | 112 | 5.0 | 5.0 | 0.00 | 0.00 | 0.00 | 75 | 1021.8 |
| 20260501175451 | 66 | 112 | 3.0 | 6.0 | 0.00 | 0.00 | 0.00 | 75 | 1021.9 |
| 20260501174951 | 66 | 112 | 6.0 | 6.0 | 0.00 | 0.00 | 0.00 | 75 | 1021.8 |
| 20260501174451 | 66 | 67 | 6.0 | 6.0 | 0.00 | 0.00 | 0.00 | 75 | 1021.7 |
| 20260501173951 | 66 | 112 | 0.0 | 4.0 | 0.00 | 0.00 | 0.00 | 74 | 1021.8 |
| 20260501173451 | 66 | 135 | 4.0 | 6.0 | 0.00 | 0.00 | 0.00 | 74 | 1021.7 |
| 20260501172951 | 66 | 112 | 6.0 | 6.0 | 0.00 | 0.00 | 0.00 | 74 | 1021.6 |
| 20260501172451 | 67 | 112 | 6.0 | 11.0 | 0.00 | 0.00 | 0.00 | 74 | 1021.6 |
| 20260501171951 | 67 | 135 | 11.0 | 11.0 | 0.00 | 0.00 | 0.00 | 73 | 1021.8 |